Location: Unspecified
(34.4950°S, 58.5160°W)
Time: 14:23:52
(UTC+00:00)

Cosmos 1655 Rocket - Pass Details

Date: 02 July 2022
Orbit: 971 x 1005 km, 83.0° (Epoch: 11 August)

Event Time Altitude Azimuth Distance (km) Brightness Sun altitude
Rises 10:12:20 0° 182° (S) 3,747 6.8 -10.1°
Reaches altitude 10° 10:14:58 10° 177° (S) 2,786 6.2 -9.6°
Maximum altitude 10:21:14 56° 99° (E) 1,169 4.8 -8.3°
Drops below altitude 10° 10:27:23 10° 21° (NNE) 2,731 7.0 -7.2°
Sets 10:29:55 0° 17° (NNE) 3,667 7.7 -6.7°
